Regional Weather Roundup
Issued by NWS Mobile, AL

Home | Current Version | Previous Version | Text Only | Print | Product List | Glossary On
Versions: 1 2 3 4 5 6 7 8 9 10 11 12 13 14 15 16 17 18 19 20 21 22 23 24 25 26 27 28 29 30 31 32 33 34 35 36 37 38 39 40 41 42 43 44 45 46 47 48 49 50
000
ASUS44 KMOB 060508
RWRMOB
REGIONAL WEATHER ROUNDUP
NATIONAL WEATHER SERVICE MOBILE AL
1200 AM CDT MON JUL 06 2015

ALZ061>064-060600-
COASTAL ALABAMA


CITY           SKY/WX    TMP DP  RH WIND       PRES   REMARKS
MOBILE REG APT PTCLDY    68  68 100 E7        30.09F
BROOKLEY FIELD PTCLDY    70  68  93 CALM      30.10F
GULF SHORES    PTCLDY    70  68  95 E6        30.09F

$$

ALZ051>060-060600-
INTERIOR SOUTHWEST AND SOUTH CENTRAL ALABAMA


CITY           SKY/WX    TMP DP  RH WIND       PRES   REMARKS
ANDALUSIA/OPP  PTCLDY    71  67  87 SE3       30.11F
EVERGREEN      CLEAR     68  67  96 CALM      30.11F
FLORALA        CLEAR     67  66  97 CALM      30.14F
GREENVILLE     FAIR      69  66  90 CALM      30.10F

$$

FLZ001>006-060600-
WESTERN FLORIDA PANHANDLE


CITY           SKY/WX    TMP DP  RH WIND       PRES   REMARKS
CRESTVIEW      CLEAR     68  67  96 E3        30.14F
DESTIN         CLEAR     76  67  73 CALM      30.13F
DUKE FIELD     NOT AVBL
MARY ESTHER    NOT AVBL
MILTON         CLEAR     70  67  90 SE3       30.12F
PENSACOLA      CLEAR     69  67  93 E5        30.11F
NAS PENSACOLA  CLEAR     71  67  87 E7        30.10F
VALPARAISO     MOCLDY    73  69  87 NE2       30.13F

$$

...MARINE OBSERVATIONS...

STATION/POSITION TIME  SKY/WX   TEMP    WIND        PRES    VSBY
                                AIR SEA DIR/SP/G
                 (UTC)          (F)     (DEG/KT/KT) (MB)    (MI)
PASCAGOULA       0400            72      40/  6/  8 1018.9F
PETIT BOIS ISL   0400            78      10/ 13/ 16 1019.3F
E DAUPHIN ISLAND 0400            79     310/  6/  9 1018.8F
MIDDLE BAY LIGHT 0400            76     290/  2     1018.3F
USCG MOBILE BAY  0400            73 84  110/  2/  4 1018.2F
STATE DOCKS      0400            73 84              1019.2F
MEAHER PARK      0400            74      80/  1     1019.3F
FORT MORGAN      0400            78      10/  3/  4 1018.6F
12 S ORANGE BCH  0450            80 82  110/  4/  6 1018.7F
WVE H/P(F/S)=  2/ 4

PENSACOLA BAY    0400            74 84   30/  4/  5 1020.5F
64 S DAUPHIN ISL 0450            81 84  170/  6/ 10 1020.5F
WVE H/P(F/S)=  3/ 5

67 S FORT MORGAN 0430            79      50/  6     1020.3F
115 SE PENSACOLA 0350            81 84   70/  8/ 10 1021.7
WVE H/P(F/S)=  1/10

MID GULF/42001   0450            85 86  100/ 10/ 10 1020.3S
WVE H/P(F/S)=  2/ 6

EAST GULF/42003  0450            83 86   70/ 10/ 12 1020.5F
WVE H/P(F/S)=  3/ 4


$$

...NEARBY LOCATIONS

CITY           SKY/WX    TMP DP  RH WIND       PRES   REMARKS
GULFPORT       MOCLDY    70  67  90 W3        30.08R
BILOXI         NOT AVBL
PASCAGOULA     CLOUDY    69  68  96 CALM      30.07F
HATTIESBURG    MOCLDY    68  66  93 W6        30.10R
LAUREL         MOCLDY    66  63  88 SW3       30.10S
MERIDIAN       MOCLDY    67  66  97 CALM      30.09F
MERIDIAN NAS   CLOUDY    67  66  97 E5        30.10F
MONTGOMERY     CLOUDY    72  68  87 W3        30.11F
MAXWELL AFB    NOT AVBL
TROY           PTCLDY    70  68  93 CALM      30.13F
FORT RUCKER    CLEAR     68  66  93 CALM      30.12F
DALEVILLE      CLEAR     70  68  93 VRB1      30.13F
DOTHAN         PTCLDY    71  67  87 CALM        N/A

$$

...OTHER SURROUNDING LOCATIONS...

CITY           SKY/WX    TMP DP  RH WIND       PRES   REMARKS
BIRMINGHAM     CLOUDY    73  70  90 W7        30.13F
TUSCALOOSA     CLOUDY    71  68  90 CALM      30.11F
COLUMBUS GA    MOCLDY    73  70  88 SW5       30.12F
PANAMA CITY    NOT AVBL
TALLAHASSEE    MOCLDY    73  69  87 CALM      30.17R
BATON ROUGE    MOCLDY    71  68  90 S8        30.08F
NEW ORLEANS    MOCLDY    73  67  81 S9        30.09F
SLIDELL        MOCLDY    71  71 100 NE3       30.09S
JACKSON        PTCLDY    69  67  93 S7        30.07S
MCCOMB         MOCLDY    68  67  96 CALM      30.09S

$$

...SURROUNDING MARINE OBSERVATIONS...

STATION/POSITION TIME  SKY/WX   TEMP    WIND        PRES    VSBY
                                AIR SEA DIR/SP/G
                 (UTC)          (F)     (DEG/KT/KT) (MB)    (MI)
WAVELAND         0400            72 81  210/  3/  6 1018.7F
PASCAGOULA RGN A 0400            72      30/  5/  8 1018.6F
PASCAGOULA PORT  0400               82                N/A
GRAND ISLE       0400            78 87  120/  7/ 13 1019.9F
SOUTHWEST PASS   0400            77      60/ 13/ 15 1020.9F
PILOT STATION E  0400            77 82   70/ 12/ 13 1021.2F
SHELL BEACH      0400            75 84  170/  4/  5 1019.0R
PANAMA CITY      0400            79 83  280/  5/  6 1020.8R
APALACHICOLA     0400            78 85  220/  4/  5 1021.2R
TYNDALL TOWER C  0500            79     160/  8/  9 1021.2F
S APLCHCLA/42036 0450            83 85  100/  4/  4 1021.3F
WVE H/P(F/S)=  2/ 5


$$



USA.gov is the U.S. government's official web portal to all federal, state and local government web resources and services.